{"data":{"norad_id":62024,"intl_designator":"2024-213S","name":"STARLINK-32504","alt_names":[],"object_type":"PAYLOAD","status":"ACTIVE","operator":null,"country":"US","launch_date":"2024-11-18","launch_site_code":"AFWTR","launch_vehicle":null,"mission":null,"orbit_class":"UNKNOWN","rcs_meters":null,"size_class":null,"mass_kg":null,"dimensions":null,"purposes":["comms"],"wikipedia_slug":null,"has_3d_model":false,"image_url":null,"decayed_at":null,"tle_current":{"epoch":"2026-09-21T16:17:45.609504Z","epoch_age_seconds":83693,"freshness":"FRESH","line1":"1 62024U 24213S   26264.67900011  .00018646  00000+0  56171-3 0  9997","line2":"2 62024  53.1600 336.2226 0001200  75.2299 284.8837 15.34395013103189","mean_motion":15.34395013,"eccentricity":0.00012,"inclination_deg":53.16,"raan_deg":336.2226,"arg_perigee_deg":75.2299,"mean_anomaly_deg":284.8837,"bstar":0.00056171,"rev_number":10318,"period_min":93.848063099772,"perigee_km":461.89716005469,"apogee_km":463.53896526973,"semimajor_km":6840.8550626622,"source":"CELESTRAK","updated_at":"2026-09-22T09:00:49.485390Z"}}}